Location: Marsån
(66.4167°N, 22.2833°E)
Time: 10:54:04
(UTC+00:00)

Feng Yun 1-1 Rocket - Pass Details

Date: 24 February 2024
Orbit: 830 x 932 km, 99.1° (Epoch: 15 April)

Event Time Altitude Azimuth Distance (km) Brightness Sun altitude
Rises 17:01:41 0° 146° (SE) 3,450 7.0 -10.4°
Reaches altitude 10° 17:04:05 10° 145° (SE) 2,502 6.3 -10.7°
Maximum altitude 17:09:36 75° 61° (ENE) 882 4.2 -11.2°
Drops below altitude 10° 17:15:03 10° 337° (NNW) 2,464 7.0 -11.8°
Sets 17:17:24 0° 336° (NNW) 3,396 7.7 -12.0°
